{"data":{"norad_id":52583,"intl_designator":"2022-051AZ","name":"STARLINK-3895","alt_names":[],"object_type":"PAYLOAD","status":"ACTIVE","operator":null,"country":"US","launch_date":"2022-05-13","launch_site_code":"AFWTR","launch_vehicle":null,"mission":null,"orbit_class":"UNKNOWN","rcs_meters":null,"size_class":null,"mass_kg":null,"dimensions":null,"purposes":["comms"],"wikipedia_slug":null,"has_3d_model":false,"image_url":null,"decayed_at":null,"tle_current":{"epoch":"2026-05-24T23:29:53.284416Z","epoch_age_seconds":70237,"freshness":"FRESH","line1":"1 52583U 22051AZ  26144.97908894 -.00000108  00000+0  11304-4 0  9996","line2":"2 52583  53.2157 136.6431 0001381  66.2818 293.8319 15.08840581223109","mean_motion":15.08840581,"eccentricity":0.0001381,"inclination_deg":53.2157,"raan_deg":136.6431,"arg_perigee_deg":66.2818,"mean_anomaly_deg":293.8319,"bstar":1.1304e-5,"rev_number":22310,"period_min":95.437517928211,"perigee_km":538.78625404364,"apogee_km":540.69697211657,"semimajor_km":6917.8786130801,"source":"CELESTRAK","updated_at":"2026-05-25T13:38:17.194932Z"}}}